| time (UTC) | temp C | wind direction | speed KPH | gust KPH | rain 1hr cm | rain 24hr cm | rain mn cm | humidity % | barometer mb |
| 20260503200050 | 15 | 319 | 27.4 | 43.5 | 0.00 | 0.00 | 0.00 | 30 | 1001.3 |
| 20260503194543 | 15 | 296 | 30.6 | 43.5 | 0.00 | 0.00 | 0.00 | 31 | 1001.3 |
| 20260503193045 | 15 | 300 | 20.9 | 41.8 | 0.00 | 0.00 | 0.00 | 35 | 1001.5 |
| 20260503191539 | 15 | 317 | 33.8 | 41.8 | 0.00 | 0.00 | 0.00 | 31 | 1001.5 |
| 20260503190042 | 15 | 302 | 24.1 | 38.6 | 0.00 | 0.00 | 0.00 | 41 | 1001.6 |
| 20260503184537 | 13 | 316 | 20.9 | 37.0 | 0.00 | 0.00 | 0.00 | 43 | 1001.6 |
| 20260503183102 | 14 | 314 | 22.5 | 33.8 | 0.00 | 0.00 | 0.00 | 44 | 1001.7 |
| 20260503181608 | 13 | 323 | 25.7 | 41.8 | 0.00 | 0.00 | 0.00 | 48 | 1001.7 |
| 20260503180043 | 14 | 311 | 27.4 | 40.2 | 0.00 | 0.00 | 0.00 | 46 | 1002.1 |
| 20260503174542 | 14 | 315 | 30.6 | 46.7 | 0.00 | 0.00 | 0.00 | 52 | 1002.0 |
| 20260503173039 | 14 | 294 | 30.6 | 41.8 | 0.00 | 0.00 | 0.00 | 54 | 1002.0 |
| 20260503171537 | 13 | 303 | 30.6 | 40.2 | 0.00 | 0.00 | 0.00 | 55 | 1001.9 |
| 20260503081538 | 7 | 57 | 1.6 | 9.7 | 0.00 | 0.00 | 0.00 | 79 | 1004.2 |
| 20260503071545 | 7 | 182 | 8.0 | 16.1 | 0.00 | 0.00 | 0.00 | 76 | 1004.7 |
| 20260503060107 | 8 | 286 | 17.7 | 24.1 | 0.00 | 0.00 | 0.00 | 70 | 1005.1 |
| 20260503054544 | 8 | 284 | 19.3 | 22.5 | 0.00 | 0.00 | 0.00 | 68 | 1005.6 |
| 20260503053039 | 9 | 304 | 16.1 | 22.5 | 0.00 | 0.00 | 0.00 | 71 | 1005.6 |
| 20260503051539 | 10 | 324 | 20.9 | 33.8 | 0.00 | 0.00 | 0.00 | 67 | 1005.6 |
| 20260503050039 | 11 | 311 | 24.1 | 30.6 | 0.00 | 0.00 | 0.00 | 64 | 1005.6 |
| 20260503044542 | 7 | 302 | 4.8 | 16.1 | 0.00 | 0.00 | 0.00 | 73 | 1005.7 |
| 20260503043045 | 6 | 0 | 0.0 | 4.8 | 0.00 | 0.00 | 0.00 | 72 | 1005.6 |
| 20260503041544 | 6 | 209 | 1.6 | 6.4 | 0.00 | 0.00 | 0.00 | 72 | 1005.6 |
| 20260503040042 | 6 | 202 | 4.8 | 8.0 | 0.00 | 0.00 | 0.00 | 74 | 1005.7 |
| 20260503034538 | 6 | 202 | 3.2 | 6.4 | 0.00 | 0.00 | 0.00 | 75 | 1005.8 |
| 20260503033054 | 6 | 202 | 0.0 | 4.8 | 0.00 | 0.00 | 0.00 | 75 | 1006.0 |
| 20260503031543 | 6 | 0 | 0.0 | 6.4 | 0.00 | 0.00 | 0.00 | 77 | 1006.2 |
| 20260503030043 | 6 | 165 | 3.2 | 6.4 | 0.00 | 0.00 | 0.00 | 74 | 1006.5 |
| 20260503024544 | 7 | 165 | 1.6 | 6.4 | 0.00 | 0.00 | 0.00 | 67 | 1006.7 |
| 20260503023037 | 7 | 0 | 0.0 | 1.6 | 0.00 | 0.00 | 0.00 | 62 | 1006.8 |
| 20260503021537 | 6 | 0 | 0.0 | 3.2 | 0.00 | 0.00 | 0.00 | 65 | 1007.0 |
| 20260503020045 | 6 | 319 | 1.6 | 3.2 | 0.00 | 0.00 | 0.00 | 65 | 1007.0 |
| 20260503014544 | 6 | 319 | 1.6 | 4.8 | 0.00 | 0.00 | 0.00 | 67 | 1007.1 |
| 20260503013050 | 6 | 319 | 3.2 | 4.8 | 0.00 | 0.00 | 0.00 | 68 | 1007.2 |
| 20260503011547 | 6 | 0 | 0.0 | 4.8 | 0.00 | 0.00 | 0.00 | 67 | 1007.3 |
| 20260503010115 | 6 | 319 | 3.2 | 6.4 | 0.00 | 0.00 | 0.00 | 65 | 1007.4 |
| 20260503004545 | 6 | 310 | 3.2 | 6.4 | 0.00 | 0.00 | 0.00 | 68 | 1007.6 |
| 20260503003044 | 5 | 341 | 6.4 | 8.0 | 0.00 | 0.00 | 0.00 | 72 | 1007.8 |
| 20260503001543 | 6 | 328 | 0.0 | 4.8 | 0.00 | 0.00 | 0.00 | 71 | 1008.0 |
| 20260503000043 | 5 | 344 | 3.2 | 9.7 | 0.00 | 0.00 | 0.00 | 75 | 1008.2 |
| 20260502234546 | 6 | 309 | 1.6 | 6.4 | 0.00 | 0.00 | 0.00 | 68 | 1008.6 |
| 20260502233047 | 6 | 304 | 3.2 | 6.4 | 0.00 | 0.00 | 0.00 | 69 | 1008.5 |
| 20260502231546 | 7 | 355 | 4.8 | 9.7 | 0.00 | 0.00 | 0.00 | 67 | 1008.5 |
| 20260502230045 | 10 | 321 | 4.8 | 16.1 | 0.00 | 0.00 | 0.00 | 51 | 1008.6 |
| 20260502224544 | 8 | 107 | 3.2 | 12.9 | 0.00 | 0.00 | 0.00 | 48 | 1008.7 |
| 20260502223046 | 10 | 282 | 4.8 | 11.3 | 0.00 | 0.00 | 0.00 | 49 | 1009.1 |
| 20260502221545 | 11 | 90 | 9.7 | 17.7 | 0.00 | 0.00 | 0.00 | 38 | 1009.2 |
| 20260502220049 | 11 | 128 | 9.7 | 19.3 | 0.00 | 0.00 | 0.00 | 39 | 1009.4 |
| 20260502214559 | 11 | 117 | 11.3 | 17.7 | 0.00 | 0.00 | 0.00 | 38 | 1009.4 |
| 20260502213044 | 10 | 119 | 12.9 | 20.9 | 0.00 | 0.00 | 0.00 | 39 | 1009.6 |
| 20260502211547 | 11 | 109 | 12.9 | 19.3 | 0.00 | 0.00 | 0.00 | 38 | 1009.9 |
| 20260502210048 | 11 | 90 | 14.5 | 20.9 | 0.00 | 0.00 | 0.00 | 37 | 1010.1 |
| 20260502204541 | 10 | 119 | 16.1 | 25.7 | 0.00 | 0.00 | 0.00 | 38 | 1010.3 |
| 20260502203059 | 10 | 117 | 14.5 | 22.5 | 0.00 | 0.00 | 0.00 | 39 | 1010.5 |
| 20260502201548 | 11 | 122 | 19.3 | 25.7 | 0.00 | 0.00 | 0.00 | 37 | 1010.8 |